Retour au catalogue

GLOBALSTAR M090

ActifCommunicationsLEO
NORAD 38044·PAYLOAD·🇺🇸 United States

Lancé Dec 28, 2011 depuis Baikonur Cosmodrome

Loading…

Prochains Passages (prochaines 24 heures)

TLE

FraisSource: Space-Track

Époque: Sep 14, 2026, 20:40 UTC

1 38044U 11080E   26257.86138309 -.00000118  00000-0 -82127-4 0  9995
2 38044  52.0123  55.5238 0000877 113.4094  50.3246 12.62268218681032

Suivez GLOBALSTAR M090 en temps réel avec AllMySat

Download on the App Store